Fort Morgan, CO

6:51 PM MST on January 22, 2017 (GMT -0700)
Fort Morgan

Weather History for KFMM - November, 2012

Change the Weather History Date:

Monday, November 5, 2012

  Actual Average (KAKO) Record (KAKO)
Temperature  
Mean Temperature 48 °F -  
Max Temperature 63 °F 53 °F 76 °F (1945)
Min Temperature 33 °F 28 °F 9 °F (1959)
Degree Days  
Heating Degree Days 17    
Moisture  
Dew Point 32 °F    
Average Humidity 59    
Maximum Humidity 93    
Minimum Humidity 29    
Precipitation  
Precipitation 0.00 in - - ()
Sea Level Pressure  
Sea Level Pressure 30.19 in    
Wind  
Wind Speed 7 mph ()    
Max Wind Speed 13 mph    
Max Gust Speed -    
Visibility 10.0 miles    
Events      
Averages and records for this station are not official NWS values.
T = Trace of Precipitation, MM = Missing Value Source: Averaged Metar Reports

Daily Weather History Graph

Daily Weather History Graph

Search for Another Location

Airport or City:

Trip Planner

Search our weather history database for the weather conditions in past years. The results will help you decide how hot, cold, wet, or windy it might be!

Date:

Astronomy

Nov. 05, 2012 Rise Set
Actual Time 6:30 AM MST 4:46 PM MST
Civil Twilight 6:01 AM MST 5:15 PM MST
Nautical Twilight 5:29 AM MST 5:47 PM MST
Astronomical Twilight 4:57 AM MST 6:19 PM MST
Moon 10:26 PM MST (11/5) 11:50 AM MST (11/5)
Length of Visible Light 11h 13m
Length of Day
10h 16m
Waning Gibbous, 62% of the Moon is Illuminated
Nov 5
Waning Gibbous
Nov 6
Last Quarter
Nov 13
New
Nov 20
First Quarter
Nov 28
Full

Hourly Weather History & Observations

Time (MST) Temp. Windchill Dew Point Humidity Pressure Visibility Wind Dir Wind Speed Gust Speed Precip Events Conditions
12:15 AM 46.4 °F 41.9 °F 33.6 °F 61% 30.31 in 10.0 mi West 9.2 mph - N/A   Overcast
12:35 AM 45.0 °F 40.6 °F 34.0 °F 65% 30.30 in 10.0 mi WNW 8.1 mph - N/A   Overcast
12:55 AM 44.2 °F 40.3 °F 34.2 °F 68% 30.30 in 10.0 mi WNW 6.9 mph - N/A   Overcast
1:15 AM 44.1 °F 39.5 °F 34.3 °F 69% 30.31 in 10.0 mi WNW 8.1 mph - N/A   Overcast
1:35 AM 44.6 °F 40.2 °F 34.2 °F 67% 30.31 in 10.0 mi WNW 8.1 mph - N/A   Overcast
1:55 AM 43.0 °F 38.2 °F 34.2 °F 71% 30.31 in 10.0 mi WNW 8.1 mph - N/A   Overcast
2:15 AM 43.7 °F 38.6 °F 34.0 °F 69% 30.30 in 10.0 mi WNW 9.2 mph - N/A   Overcast
2:35 AM 42.3 °F 39.4 °F 33.4 °F 71% 30.30 in 10.0 mi West 4.6 mph - N/A   Overcast
2:55 AM 42.1 °F 37.7 °F 33.8 °F 72% 30.29 in 10.0 mi West 6.9 mph - N/A   Overcast
3:15 AM 39.4 °F 33.8 °F 32.9 °F 78% 30.28 in 10.0 mi WNW 8.1 mph - N/A   Scattered Clouds
3:35 AM 38.5 °F 32.1 °F 32.9 °F 80% 30.28 in 10.0 mi WNW 9.2 mph - N/A   Mostly Cloudy
3:55 AM 37.4 °F 31.4 °F 32.0 °F 81% 30.28 in 10.0 mi West 8.1 mph - N/A   Scattered Clouds
4:35 AM 35.1 °F 29.3 °F 32.0 °F 89% 30.28 in 10.0 mi West 6.9 mph - N/A   Clear
4:55 AM 33.6 °F 26.8 °F 31.6 °F 92% 30.28 in 10.0 mi West 8.1 mph - N/A   Clear
5:15 AM 33.6 °F 27.5 °F 31.5 °F 92% 30.28 in 10.0 mi WSW 6.9 mph - N/A   Clear
5:35 AM 33.6 °F 27.5 °F 31.8 °F 93% 30.26 in 10.0 mi West 6.9 mph - N/A   Clear
5:55 AM 35.1 °F 28.6 °F 32.0 °F 89% 30.26 in 10.0 mi West 8.1 mph - N/A   Clear
6:15 AM 33.8 °F 28.6 °F 31.6 °F 92% 30.26 in 10.0 mi West 5.8 mph - N/A   Clear
6:35 AM 33.4 °F 26.6 °F 31.1 °F 91% 30.26 in 10.0 mi West 8.1 mph - N/A   Clear
6:55 AM 34.2 °F 29.0 °F 31.8 °F 91% 30.26 in 10.0 mi West 5.8 mph - N/A   Clear
7:15 AM 35.2 °F 30.3 °F 32.5 °F 90% 30.26 in 10.0 mi West 5.8 mph - N/A   Clear
7:35 AM 36.7 °F 30.5 °F 33.3 °F 87% 30.27 in 10.0 mi West 8.1 mph - N/A   Clear
7:55 AM 38.5 °F 31.6 °F 33.6 °F 83% 30.28 in 10.0 mi West 10.4 mph - N/A   Clear
8:15 AM 42.3 °F 36.8 °F 33.3 °F 70% 30.27 in 10.0 mi West 9.2 mph - N/A   Clear
8:35 AM 41.5 °F 35.0 °F 32.4 °F 70% 30.26 in 10.0 mi West 11.5 mph - N/A   Clear
8:55 AM 44.2 °F 38.8 °F 32.7 °F 64% 30.26 in 10.0 mi West 10.4 mph - N/A   Clear
9:15 AM 45.1 °F 39.9 °F 32.0 °F 60% 30.26 in 10.0 mi WSW 10.4 mph - N/A   Clear
9:35 AM 45.1 °F 40.8 °F 32.0 °F 60% 30.25 in 10.0 mi WSW 8.1 mph - N/A   Clear
9:55 AM 45.5 °F 40.3 °F 32.2 °F 60% 30.24 in 10.0 mi WSW 10.4 mph - N/A   Clear
10:15 AM 48.2 °F - 32.9 °F 55% 30.24 in 10.0 mi SW 9.2 mph - N/A   Clear
10:35 AM 50.2 °F - 33.6 °F 53% 30.23 in 10.0 mi SW 6.9 mph - N/A   Clear
10:55 AM 53.1 °F - 33.8 °F 48% 30.22 in 10.0 mi SW 6.9 mph - N/A   Clear
11:15 AM 55.2 °F - 34.7 °F 46% 30.21 in 10.0 mi WSW 3.5 mph - N/A   Clear
11:35 AM 57.6 °F - 34.2 °F 41% 30.19 in 10.0 mi SSW 8.1 mph - N/A   Clear
11:55 AM 59.9 °F - 32.9 °F 36% 30.17 in 10.0 mi SW 4.6 mph - N/A   Clear
12:15 PM 60.4 °F - 32.0 °F 34% 30.15 in 10.0 mi WSW 5.8 mph - N/A   Clear
12:35 PM 61.7 °F - 32.0 °F 33% 30.15 in 10.0 mi West 6.9 mph - N/A   Clear
12:55 PM 61.9 °F - 32.0 °F 33% 30.14 in 10.0 mi West 10.4 mph - N/A   Clear
1:15 PM 61.9 °F - 31.6 °F 32% 30.12 in 10.0 mi West 6.9 mph - N/A   Clear
1:35 PM 62.4 °F - 31.8 °F 32% 30.11 in 10.0 mi West 3.5 mph - N/A   Clear
1:55 PM 62.4 °F - 31.1 °F 31% 30.11 in 10.0 mi West 5.8 mph - N/A   Clear
2:15 PM 62.6 °F - 31.1 °F 31% 30.11 in 10.0 mi WSW 5.8 mph - N/A   Clear
2:35 PM 63.0 °F - 31.3 °F 30% 30.10 in 10.0 mi WSW 12.7 mph - N/A   Clear
2:55 PM 63.9 °F - 31.1 °F 29% 30.10 in 10.0 mi West 9.2 mph - N/A   Clear
3:15 PM 62.6 °F - 31.1 °F 31% 30.10 in 10.0 mi WSW 5.8 mph - N/A   Clear
3:35 PM 61.0 °F - 31.6 °F 33% 30.10 in 10.0 mi West 4.6 mph - N/A   Clear
3:55 PM 59.5 °F - 32.0 °F 35% 30.10 in 10.0 mi West 3.5 mph - N/A   Clear
4:15 PM 57.6 °F - 32.0 °F 38% 30.11 in 10.0 mi WNW 3.5 mph - N/A   Clear
4:35 PM 55.0 °F - 32.0 °F 42% 30.11 in 10.0 mi WNW 5.8 mph - N/A   Clear
4:55 PM 55.6 °F - 31.3 °F 40% 30.11 in 10.0 mi West 4.6 mph - N/A   Clear
5:15 PM 53.6 °F - 31.8 °F 44% 30.11 in 10.0 mi West 4.6 mph - N/A   Clear
5:35 PM 52.7 °F - 32.0 °F 45% 30.11 in 10.0 mi West 4.6 mph - N/A   Clear
5:55 PM 54.1 °F - 31.1 °F 41% 30.11 in 10.0 mi West 4.6 mph - N/A   Clear
6:15 PM 51.4 °F - 31.6 °F 47% 30.11 in 10.0 mi West 6.9 mph - N/A   Clear
6:35 PM 50.5 °F - 31.8 °F 49% 30.11 in 10.0 mi West 5.8 mph - N/A   Clear
6:55 PM 53.2 °F - 31.3 °F 43% 30.11 in 10.0 mi WNW 3.5 mph - N/A   Clear
7:15 PM 48.6 °F - 31.6 °F 52% 30.12 in 10.0 mi West 5.8 mph - N/A   Clear
7:35 PM 52.0 °F - 31.1 °F 45% 30.12 in 10.0 mi West 4.6 mph - N/A   Clear
7:55 PM 53.6 °F - 31.3 °F 43% 30.13 in 10.0 mi NW 6.9 mph - N/A   Clear
8:15 PM 51.4 °F - 31.3 °F 46% 30.13 in 10.0 mi NW 3.5 mph - N/A   Clear
8:35 PM 49.3 °F - 31.6 °F 51% 30.14 in 10.0 mi Calm Calm - N/A   Clear
8:55 PM 50.9 °F - 30.6 °F 46% 30.14 in 10.0 mi NW 6.9 mph - N/A   Clear
9:15 PM 47.7 °F - 31.1 °F 53% 30.14 in 10.0 mi WNW 6.9 mph - N/A   Clear
9:35 PM 44.8 °F 39.9 °F 32.0 °F 61% 30.14 in 10.0 mi West 9.2 mph - N/A   Clear
9:55 PM 43.0 °F 37.7 °F 33.1 °F 68% 30.14 in 10.0 mi West 9.2 mph - N/A   Clear
10:15 PM 42.1 °F 37.1 °F 33.4 °F 71% 30.14 in 10.0 mi WSW 8.1 mph - N/A   Clear
10:35 PM 39.4 °F 33.8 °F 32.9 °F 78% 30.14 in 10.0 mi WNW 8.1 mph - N/A   Clear
10:55 PM 39.2 °F 33.6 °F 32.5 °F 77% 30.14 in 10.0 mi WNW 8.1 mph - N/A   Clear
11:15 PM 42.8 °F 38.6 °F 32.0 °F 66% 30.15 in 10.0 mi NW 6.9 mph - N/A   Clear
11:35 PM 45.7 °F 42.7 °F 31.5 °F 58% 30.16 in 10.0 mi West 5.8 mph - N/A   Clear
11:55 PM 39.4 °F 33.2 °F 32.0 °F 75% 30.17 in 10.0 mi WSW 9.2 mph - N/A   Clear